星链-36924(STARLINK-36924)

导读

STARLINK-36924(NORAD编号68054)是SpaceX星链(Starlink)卫星互联网星座中的一颗低轨通信卫星,隶属于SpaceX大规模星链组网计划。星链星座旨在为全球提供覆盖偏远地区的高速低时延宽带互联网服务,该卫星原部署在约550公里近地轨道,2026年SpaceX启动4400颗星链卫星降轨计划,将轨道高度调整至480公里,以提升太空运行安全性,缩短故障卫星脱轨再入大气层时间,降低太空碰撞与碎片风险。作为近地轨道通信卫星,它通过星间组网与地面相控阵终端配合,可提供时延约25毫秒的网络服务,支持视频通话、在线办公等实时应用。它的部署进一步扩展了星链星座的全球覆盖能力,也是SpaceX近地轨道大规模卫星组网的组成部分。

Basic Information
目录编号:
68054
目录名称:
STARLINK-36924
国际标识:
2026-041Q
轨道中心:
EARTH
卫星名称:
星链-36924
卫星全名:
星链-36924(STARLINK-36924)
卫星状态:
在轨 (已飞行187 天)
发射日期:
2026-03-02 UTC
国别 :
美国 (US)
星等 :
--
Orbit Information
数据来源 国际轨道数据
星历时间: 2026-09-05T10:40:36+0800
11小时前
查看轨道信息
半长轴: 6840.875km
偏心率: 0.0001416
轨道倾角: 53.159°
近地点辐角 81.187°
升交点赤经 291.881°
平近点角 278.930°
近地点: 461.769km
远地点: 463.707km
周期: 93.848分钟
每日圈数: 15.343884
Detailed Information
固有亮度:
5
最大亮度:
2.5
卫星平台:
Starlink V1.0
覆盖范围:
全球
运营商:
太空探索技术公司
运营商所在国:
美国
制造商(研发单位):
太空探索技术公司
制造商所在国:
美国
使用方式:
暂无
Satellite Introduction
Starlink 计划是 SpaceX 推出的全球卫星互联网项目,通过发射低轨道卫星,为全球尤其是偏远地区提供高速、低延迟的互联网服务。自 2019 年起,Starlink 已部署数千颗卫星,旨在缩小全球数字鸿沟,推动互联网普及。该项目还为军事、航空等行业提供通信支持,带来广泛经济效益。
2D Orbit Map
3D Orbit Map
Orbit Altitude Analysis Chart
Orbit Inclination Analysis Chart
Orbit Comprehensive Analysis Chart
View Comprehensive Chart
Conjunction Data List
Event ID Objects TCA Miss Dist (km) Collision Risk Probability Collision Risk Index (CRI) Action
CDM_260906-181506-468706-805421
2026-09-06T
18:15:35+0000
0.368 km
远距离
2.691254E-4 高风险 0.84
CDM_260906-045806-468706-805421
2026-09-06T
04:58:21+0000
0.396 km
远距离
2.324812E-4 高风险 0.82
CDM_260903-131006-805406-809821
2026-09-03T
13:10:52+0000
0.488 km
远距离
1.848772E-4 高风险 0.8
CDM_260907-121305-341806-805421
2026-09-07T
12:13:48+0000
0.719 km
远距离
4.915109E-5 中风险 0.69
CDM_260907-104005-341806-805421
2026-09-07T
10:40:01+0000
0.730 km
远距离
4.682838E-5 中风险 0.68
CDM_260907-133706-805406-855121
2026-09-07T
13:37:33+0000
0.669 km
远距离
4.617179E-5 中风险 0.68
CDM_260906-141306-442306-805421
2026-09-06T
14:13:03+0000
1.470 km
极远距离
4.022534E-6 低风险 0.47
CDM_260907-083504-944206-805421
2026-09-07T
08:35:52+0000
1.721 km
极远距离
3.834984E-6 低风险 0.47
CDM_260907-120306-805406-855121
2026-09-07T
12:03:46+0000
1.610 km
极远距离
2.551164E-6 低风险 0.43
CDM_260907-134705-341806-805421
2026-09-07T
13:47:36+0000
1.916 km
极远距离
2.048742E-6 低风险 0.41